Location: Platte
(43.3870°N, 98.8440°W)
Time: 22:41:31
(UTC-05:00)

Daily predictions for brighter satellites

Satellite Brightness Start Highest point End
(mag) Time Altitude Azimuth Time Altitude Azimuth Time Altitude Azimuth
Cosmos 614 Rocket 4.0 21:48:22 10° SSW 21:53:35 80° ESE 21:58:48 10° NNE
Cosmos 2297 Rocket 2.7 21:50:15 10° SSW 21:55:52 69° WNW 22:01:33 10° NNE
Cosmos 2221 2.7 21:52:09 10° N 21:56:31 60° E 22:00:51 10° SSE
Cosmos 1850 Rocket 4.0 21:52:50 10° S 21:57:55 61° ESE 22:03:03 10° NNE
USA 234 3.8 21:56:14 10° ENE 22:02:09 35° SE 22:08:02 10° SSW
Okean 3 Rocket 3.6 22:00:27 10° S 22:04:54 67° E 22:09:22 10° NNE
Cosmos 2263 Rocket 4.0 22:05:36 10° ESE 22:07:00 11° E 22:08:24 10° E
YAOGAN 6 2.8 22:03:37 10° S 22:07:14 72° WSW 22:10:56 10° NNW
Cosmos 1300 4.5 22:04:48 10° NNE 22:07:30 18° ENE 22:10:12 10° ESE
ERS-1 Rocket 3.0 22:02:45 10° SSE 22:07:45 71° ENE 22:12:47 10° N
Cosmos 1939 Rocket 3.9 22:04:36 10° S 22:08:28 46° W 22:12:24 10° NNW
Cosmos 1726 3.5 22:06:56 10° NNE 22:09:57 23° ENE 22:12:45 11° SE
ATLAS 5 CENTAUR R/B 1.7 22:07:38 10° SSW 22:12:17 83° SE 22:17:23 10° NE
Cosmos 1184 Rocket 4.0 22:09:33 10° SSW 22:12:47 47° WNW 22:16:05 10° N
Cosmos 1340 Rocket 3.4 22:10:54 10° SSW 22:14:52 60° WNW 22:18:55 10° N
H-2A R/B 3.0 22:10:19 10° SE 22:15:05 35° ENE 22:19:58 10° N
Cosmos 1766 Rocket 3.9 22:16:06 10° SSE 22:20:13 45° E 22:24:23 10° NNE
Cosmos 1818 3.8 22:15:21 10° NW 22:20:47 71° WSW 22:26:01 11° SSE
Cosmos 1741 Rocket 4.1 22:17:31 10° SSW 22:22:51 84° WNW 22:28:11 10° NNE
Terra 3.5 22:19:50 10° ESE 22:23:13 20° ENE 22:26:37 10° NNE
Cosmos 2237 Rocket 4.1 22:18:55 10° NW 22:23:26 25° WSW 22:27:56 10° SSW
YAOGAN 11 4.4 22:22:06 12° SSE 22:26:13 57° ENE 22:30:42 10° N
USA 245 3.5 22:24:12 14° SE 22:26:58 52° ENE 22:31:03 10° N
Cosmos 1603 4.0 22:25:36 10° NNW 22:31:12 58° ENE 22:35:50 15° SE
Cosmos 332 Rocket 4.4 22:26:36 10° N 22:31:20 46° ENE 22:35:08 15° SE
SL-08 RB Rocket 4.0 22:28:02 13° SSE 22:31:57 56° ENE 22:36:29 10° N
Cosmos 2228 Rocket 4.0 22:29:36 10° N 22:33:51 36° ENE 22:37:00 16° SE
Cosmos 1674 2.9 22:32:10 10° SSW 22:35:55 70° W 22:39:41 10° N
Cosmos 1743 Rocket 4.4 22:33:40 15° SE 22:36:32 31° E 22:40:21 10° NNE
H-2A R/B 3.9 22:34:10 11° ESE 22:36:55 19° ENE 22:39:52 10° NNE
Helios 1B rocket 4.4 22:34:25 10° N 22:38:06 32° WNW 22:41:47 10° SW
Cosmos 1908 3.8 22:35:34 10° NNW 22:39:24 56° W 22:43:09 10° S
Cosmos 2084 3.7 22:37:20 10° SW 22:41:18 64° NW 22:45:06 10° NNE
ERBS 3.4 22:41:35 10° NNW 22:44:46 37° NE 22:47:11 15° E
Cosmos 1459 Rocket 4.3 22:40:19 10° NNW 22:46:36 71° W 22:52:45 10° S
Cosmos 1943 4.0 22:41:56 10° NNW 22:47:17 41° ENE 22:51:21 16° ESE
SL-16 R/B 3.3 22:42:44 10° NW 22:47:56 38° WSW 22:53:06 10° S
ARGOS 3.2 22:43:01 12° SSE 22:48:02 83° WSW 22:53:29 10° NNW
MetOp-A 4.5 22:42:49 10° S 22:48:08 65° WSW 22:53:29 10° NNW
Cosmos 2100 Rocket 4.5 22:43:28 10° NNW 22:49:41 63° W 22:55:56 10° S
KORONAS-FOTON 4.0 22:46:12 10° SSW 22:49:59 72° W 22:53:48 10° N
Cosmos 2061 Rocket 4.3 22:47:33 10° NNW 22:53:55 69° W 23:00:16 10° S
Cosmos 1814 Rocket 4.1 22:52:44 10° NNW 22:58:06 70° ENE 23:01:39 21° SSE
Nimbus 7 Rocket 4.4 22:53:37 10° NNE 22:59:41 72° ESE 23:05:37 10° S
Cosmos 2123 Rocket 3.9 22:55:40 11° S 23:01:40 76° E 23:07:53 10° N
Cosmos 1486 Rocket 4.3 23:00:59 16° S 23:04:56 50° ESE 23:10:03 10° NNE
Cosmos 1242 Rocket 4.4 23:02:22 10° NNW 23:05:34 27° W 23:08:45 10° SSW
Cosmos 1703 4.4 23:07:01 24° ESE 23:08:09 28° E 23:11:35 10° NNE
Cosmos 841 Rocket 3.8 23:04:24 10° NNW 23:09:35 54° ENE 23:12:35 24° SE
SPOT 1/Viking Rocket 3.6 23:06:11 19° S 23:09:58 77° WSW 23:15:09 10° NNW
Cosmos 220 Rocket 4.0 23:06:49 14° S 23:10:33 71° ESE 23:14:57 10° NNE
Cosmos 1763 Rocket 3.5 23:07:00 10° NNW 23:12:08 72° ENE 23:15:02 26° SSE
Meteor 1-11 4.4 23:14:29 20° S 23:18:28 62° E 23:24:12 10° NNE
Cosmos 2058 3.2 23:18:06 30° SSE 23:19:46 49° E 23:23:51 10° NNE
SPOT 5 3.8 23:16:55 14° SSW 23:20:46 43° W 23:25:38 10° NNW
Cosmos 371 Rocket 3.3 23:16:57 10° NNW 23:21:46 76° WSW 23:24:25 27° S
Lacrosse 5 2.0 23:18:25 10° NW 23:23:25 61° SW 23:25:53 29° SSE
Cosmos 1725 Rocket 4.1 23:17:25 10° NNW 23:23:40 73° W 23:28:16 19° S
deb Chang Zheng 4 4.1 23:21:28 10° NNE 23:25:36 41° E 23:26:57 32° SE
Tiangong 1 0.5 23:23:22 10° W 23:26:09 76° S 23:26:18 73° SSE
Abrixas rocket 2.0 23:25:21 10° WNW 23:28:36 89° N 23:29:24 48° ESE
RESURS DK-1 3.4 23:28:15 10° NW 23:32:08 38° WSW 23:34:01 24° SSW
Meteor 1-27 4.2 23:26:22 10° N 23:32:14 83° E 23:35:26 28° SSE
SL-14 R/B 4.4 23:37:34 14° SW 23:40:38 40° WNW 23:44:23 10° N
Cosmos 1626 2.0 23:39:49 46° SSE 23:40:46 72° E 23:44:30 10° NNE
Cosmos 2151 3.0 23:39:06 29° SSW 23:41:14 82° W 23:45:34 10° N
CZ-4C R/B 3.6 23:41:35 19° ESE 23:41:35 19° ESE 23:45:15 10° ENE
Cosmos 1500 Rocket 3.8 23:38:45 23° SSW 23:41:28 69° W 23:45:55 10° N
Cosmos 1300 4.2 23:39:53 10° NNW 23:43:18 31° W 23:45:20 19° SW
Cosmos 1726 4.2 23:42:18 10° NW 23:45:09 21° W 23:47:22 13° SW
USA 234 3.5 23:38:55 10° NE 23:45:27 71° NW 23:51:56 10° WSW
Landsat 7 4.4 23:43:05 24° SSW 23:45:39 49° W 23:50:17 10° NNW
Cosmos 1464 Rocket 4.4 23:42:54 10° N 23:48:52 50° ENE 23:51:40 30° SE
Cosmos 2263 Rocket 2.1 23:46:03 20° SSW 23:49:57 83° ESE 23:55:35 10° NNE
Cosmos 1503 Rocket 3.9 23:48:28 33° S 23:50:46 65° ESE 23:55:54 10° NNE
CARTOSAT-1 3.9 23:49:37 33° SSW 23:51:21 57° W 23:55:37 10° NNW
H-2A R/B 3.4 23:50:52 16° SSW 23:54:27 33° W 23:59:20 10° NNW
